Location: Ashtead
(51.3000°N, 0.3000°W)
Time: 13:13:08
(UTC+00:00)

Meteor 2-6 Rocket - Pass Details

Date: 26 September 2023
Orbit: 806 x 913 km, 81.3° (Epoch: 28 November)

Event Time Altitude Azimuth Distance (km) Brightness Sun altitude
Rises 04:46:08 0° 199° (SSW) 3,342 7.0 -11.2°
Reaches altitude 10° 04:48:33 10° 202° (SSW) 2,403 6.3 -10.9°
Maximum altitude 04:53:57 68° 285° (WNW) 873 4.1 -10.0°
Drops below altitude 10° 04:59:20 10° 9° (N) 2,401 6.8 -9.2°
Sets 05:01:45 0° 12° (NNE) 3,338 7.6 -8.8°
